Location: Houhaj�rvi
(61.2667°N, 23.0167°E)
Time: 18:54:12
(UTC+00:00)

NOSS 0 Rocket - Pass Details

Date: 13 December 2019
Orbit: 934 x 956 km, 70.0° (Epoch: 17 January)

Event Time Altitude Azimuth Distance (km) Brightness Sun altitude
Rises 15:34:13 0° 200° (SSW) 3,613 7.6 -14.7°
Reaches altitude 10° 15:36:47 10° 196° (SSW) 2,674 6.8 -15.0°
Maximum altitude 15:42:47 54° 121° (ESE) 1,156 4.2 -15.6°
Enters shadow 15:46:39 23° 54° (NE) 1,938 5.0 -16.1°
